Location: Cortos
(40.7190°N, 4.5893°W)
Time: 09:46:23
(UTC+00:00)

Cosmos 1400 Rocket - Pass Details

Date: 05 July 2020
Orbit: 521 x 568 km, 81.2° (Epoch: 07 August)

Event Time Altitude Azimuth Distance (km) Brightness Sun altitude
Rises 21:10:06 0° 356° (N) 2,716 7.2 -12.4°
Reaches altitude 10° 21:12:21 10° 2° (N) 1,810 6.1 -12.7°
Maximum altitude 21:16:12 47° 77° (ENE) 716 3.2 -13.2°
Enters shadow 21:18:22 23° 141° (SE) 1,174 3.9 -13.5°
